Regional Weather Roundup
Issued by NWS Sioux Falls, SD

Home | Current Version | Previous Version | Graphics & Text | Print | Product List | Glossary Off
Versions: 1 2 3 4 5 6 7 8 9 10 11 12 13 14 15 16 17 18 19 20 21 22 23 24 25 26 27 28 29 30 31 32 33 34 35 36 37 38 39 40 41 42 43 44 45 46 47 48 49 50

000
ASUS43 KFSD 180802
RWRFSD

WEATHER ROUNDUP FOR SE SOUTH DAKOTA/SW MINNESOTA/NW IOWA
NATIONAL WEATHER SERVICE SIOUX FALLS SD
300 AM CDT SAT APR 18 2015

NOTE: "FAIR" INDICATES FEW OR NO CLOUDS BELOW 12,000 FEET WITH NO
SIGNIFICANT WEATHER AND OR OBSTRUCTIONS TO VISIBILITY.


SDZ038>040-050-052>070-180900-
SOUTHEAST SOUTH DAKOTA

CITY           SKY/WX    TMP DP  RH WIND       PRES   REMARKS
BROOKINGS      PTCLDY    43  28  56 CALM      30.06S
CHAMBERLAIN    NOT AVBL
HURON          CLOUDY    48  33  56 CALM      30.03F
MADISON        PTSUNNY   46  21  36 NE6       30.04F
MITCHELL       MOCLDY    56  28  34 NE7       30.02F
SIOUX FALLS    PTCLDY    49  28  44 NE5       30.02S
WINNER         CLOUDY    53  49  86 W8        30.03S
YANKTON        MOCLDY    57  43  58 NE8       30.00F
$$

MNZ071-072-080-081-089-090-097-098-180900-
SOUTHWEST MINNESOTA

CITY           SKY/WX    TMP DP  RH WIND       PRES   REMARKS
FAIRMONT       MOCLDY    52  27  37 N6        30.04R
JACKSON        MOCLDY    52  27  37 NE8       30.05S
LUVERNE        PTCLDY    54  27  35 NE5       30.04S
MARSHALL       PTCLDY    43  19  39 W7        30.04F
MONTEVIDEO     PTCLDY    45  27  49 NE6       30.06F
PIPESTONE      PTCLDY    52  16  24 E6        30.04S
REDWOOD FALLS  PTCLDY    50  24  36 N6        30.03F
TRACY          PTCLDY    50  23  34 CALM      30.05S
WORTHINGTON    PTCLDY    46  23  39 N5        30.05F
$$

IAZ001>003-012>014-020>022-031-032-NEZ013-014-SDZ071-180900-
NORTHWEST IOWA

CITY           SKY/WX    TMP DP  RH WIND       PRES   REMARKS
DENISON        CLOUDY    59  48  67 NE5       29.97F
ESTHERVILLE    MOCLDY    48  33  56 N8        30.03F
SIOUX CITY     CLOUDY    62  45  53 NE5       29.99F
SPENCER        PTCLDY    51  36  56 NE8       30.03S
$$

ABBREVIATIONS USED IN REMARKS
   TC - TEMPERATURE IN CELSIUS
  WCI - WIND CHILL INDEX
   HX - HEAT INDEX
  VSB - VISIBILITY



USA.gov is the U.S. government's official web portal to all federal, state and local government web resources and services.